Location: La Chapelle
(48.3135°N, 1.3085°W)
Time: 20:18:52
(UTC+00:00)

USA 307 - Pass Details

Date: 03 March 2021
Orbit: 567 x 577 km, 54.0° (Epoch: 13 April)

Event Time Altitude Azimuth Distance (km) Brightness Sun altitude
Rises 18:14:19 0° 263° (W) 2,783 9.6 -4.4°
Reaches altitude 10° 18:16:38 10° 269° (W) 1,885 7.5 -4.8°
Maximum altitude 18:20:47 48° 344° (NNW) 761 3.7 -5.5°
Drops below altitude 10° 18:24:57 10° 60° (ENE) 1,882 5.0 -6.2°
Enters shadow 18:25:53 - 63° (ENE) 2,240 5.4 -6.3°
